1507269600.66,58277,12.13,72388.5,-6.13,-6.69,-6.69,0,*5B
1507269601.86,58278,12.13,72410.3,-6.13,-6.55,-6.55,0,*54
1507269603.06,58279,12.13,72422.8,-6.13,-6.55,-6.51,0,*51
1507269604.29,58280,12.13,72422.5,-6.11,-6.55,-6.55,0,*51
1507269605.52,58281,12.13,72430.5,-6.11,-6.51,-6.55,0,*54
1507269606.72,58282,12.13,72450.5,-6.09,-6.47,-6.47,0,*5A
1507269607.91,58283,12.13,72448.3,-6.09,-6.85,-6.73,0,*52
1507269609.18,58284,12.13,72440.0,-6.07,-7.01,-7.05,0,*56
1507269610.43,58285,12.13,72444.8,-6.09,-7.01,-6.93,0,*57
1507269611.65,58286,12.13,72452.8,-6.09,-7.27,-7.19,0,*53
1507269612.89,58287,12.13,72430.3,-6.09,-7.05,-7.01,0,*5B
1507269614.12,58288,12.13,72430.0,-6.07,-6.89,-6.85,0,*52
1507269615.34,58289,12.13,72468.0,-6.07,-6.89,-6.89,0,*5F
1507269616.59,58290,12.13,72436.3,-6.09,-7.77,-7.77,0,*59
1507269617.84,58291,12.13,72436.8,-6.09,-7.73,-7.57,0,*5E
1507269619.12,58292,12.13,72422.5,-6.11,-7.57,-7.35,0,*56
1507269620.34,58293,12.13,72452.0,-6.09,-7.87,-7.69,0,*5A
1507269621.61,58294,12.13,72452.3,-6.11,-8.03,-7.91,0,*50
1507269622.84,58295,12.06,72440.3,-6.11,-7.87,-7.83,0,*51
1507269624.04,58296,12.13,72450.0,-6.09,-7.87,-7.83,0,*5B
1507269625.31,58297,12.13,72448.5,-6.11,-8.11,-8.03,0,*54
1507269626.54,58298,12.06,72440.3,-6.11,-8.37,-8.37,0,*58
1507269627.74,58299,12.13,72428.3,-6.13,-8.25,-8.29,0,*57
1507269628.97,58300,12.13,72428.5,-6.13,-8.51,-8.37,0,*5A
1507269630.16,58301,12.13,72388.0,-6.13,-8.55,-8.63,0,*5E
1507269631.39,58302,12.13,72376.5,-6.17,-7.73,-7.53,0,*5E
1507269632.61,58303,12.13,72452.8,-6.13,-7.31,-7.23,0,*5A
1507269633.84,58304,12.13,72474.0,-6.13,-7.11,-7.05,0,*5B
1507269635.09,58305,12.13,72450.5,-6.13,-7.61,-7.57,0,*5A
1507269636.31,58306,12.13,72466.0,-6.13,-8.17,-8.11,0,*5A
1507269637.51,58307,12.13,72462.3,-6.17,-8.37,-8.29,0,*56
1507269638.73,58308,12.13,72436.0,-6.19,-8.37,-8.33,0,*5C
1507269640.01,58309,12.13,72430.8,-6.19,-7.99,-7.95,0,*55
1507269641.24,58310,12.13,72410.3,-6.19,-7.83,-7.83,0,*51
1507269642.52,58311,12.13,72386.0,-6.19,-7.65,-7.43,0,*54
1507269643.8,58312,12.13,72406.5,-6.19,-7.05,-6.97,0,*59
1507269645.04,58313,12.13,72414.0,-6.17,-7.01,-6.97,0,*52
1507269646.24,58314,12.13,72438.0,-6.17,-7.23,-7.11,0,*5A
1507269647.5,58315,12.13,72446.5,-6.19,-6.97,-6.69,0,*55
1507269648.77,58316,12.13,72448.3,-6.19,-7.01,-7.01,0,*57
1507269650.02,58317,12.13,72456.0,-6.13,-6.97,-6.93,0,*58
1507269651.24,58318,12.13,72446.3,-6.13,-7.11,-7.05,0,*56
1507269652.47,58319,12.13,72426.5,-6.13,-6.97,-6.89,0,*5D
1507269653.7,58320,12.13,72434.3,-6.13,-7.11,-6.97,0,*57
1507269654.92,58321,12.13,72454.8,-6.13,-7.31,-7.19,0,*53
1507269656.17,58322,12.13,72444.5,-6.13,-7.43,-7.31,0,*5F
1507269657.42,58323,12.13,72456.3,-6.13,-7.35,-7.31,0,*5F
1507269658.63,58324,12.13,72468.3,-6.13,-7.19,-7.11,0,*54
1507269659.86,58325,12.13,72460.8,-6.13,-7.11,-7.05,0,*58
1507269661.08,58326,12.13,72426.0,-6.13,-7.49,-7.43,0,*54
1507269662.34,58327,12.13,72396.0,-6.13,-7.57,-7.57,0,*5F
1507269663.57,58328,12.13,72382.3,-6.13,-7.35,-7.23,0,*57
1507269664.79,58329,12.13,72360.8,-6.13,-7.35,-7.49,0,*5A
1507269666.04,58330,12.13,72358.0,-6.13,-7.61,-7.57,0,*5C
1507269667.29,58331,12.13,72340.5,-6.13,-7.69,-7.61,0,*50
1507269668.54,58332,12.06,72342.5,-6.13,-7.69,-7.69,0,*5B
1507269669.8,58333,12.13,72326.8,-6.13,-7.73,-7.61,0,*59
1507269671.02,58334,12.13,72308.8,-6.13,-7.49,-7.43,0,*57
1507269672.28,58335,12.13,72290.5,-6.13,-7.69,-7.61,0,*54
1507269673.52,58336,12.13,72328.8,-6.13,-8.03,-8.03,0,*5F
1507269674.71,58337,12.13,72328.8,-6.13,-8.29,-8.17,0,*53
1507269675.91,58338,12.13,72366.8,-6.13,-7.87,-7.83,0,*55
1507269677.14,58339,12.13,72368.8,-6.13,-7.31,-7.11,0,*52
1507269678.39,58340,12.13,72390.8,-6.13,-7.05,-6.93,0,*50
1507269679.59,58341,12.13,72400.0,-6.13,-7.23,-7.19,0,*56
1507269680.79,58342,12.06,72402.8,-6.13,-7.49,-7.49,0,*5C
1507269682.04,58343,12.13,72402.3,-6.17,-7.77,-7.73,0,*5D
1507269683.29,58344,12.13,72394.0,-6.17,-7.73,-7.73,0,*5E
1507269684.48,58345,12.06,72406.5,-6.17,-7.49,-7.53,0,*54
1507269685.73,58346,12.06,72420.3,-6.17,-7.73,-7.73,0,*5C
1507269686.98,58347,12.06,72400.0,-6.17,-7.77,-7.77,0,*5D
1507269688.22,58348,12.13,72402.5,-6.17,-8.03,-7.95,0,*52
1507269689.42,58349,12.06,72398.5,-6.17,-8.17,-8.17,0,*53
1507269690.7,58350,12.06,72410.8,-6.19,-8.11,-7.99,0,*5A
1507269691.93,58351,12.13,72416.3,-6.19,-8.37,-8.37,0,*54
1507269693.18,58352,12.13,72416.8,-6.19,-8.25,-8.11,0,*50
1507269694.42,58353,12.13,72424.3,-6.19,-8.45,-8.37,0,*53
1507269695.64,58354,12.13,72426.3,-6.19,-8.45,-8.45,0,*51
1507269696.9,58355,12.13,72420.8,-6.19,-8.51,-8.45,0,*55
1507269698.13,58356,12.13,72402.5,-6.21,-8.51,-8.45,0,*5D
1507269699.32,58357,12.13,72418.8,-6.21,-8.37,-8.33,0,*5D
1507269700.57,58358,12.06,72394.3,-6.21,-7.95,-7.91,0,*52
1507269701.85,58359,12.13,72342.3,-6.23,-7.73,-7.61,0,*56
1507269703.11,58360,12.13,72314.0,-6.23,-7.73,-7.83,0,*50
1507269704.39,58361,12.13,72374.0,-6.23,-7.61,-7.61,0,*5E
1507269705.64,58362,12.13,72390.3,-6.23,-7.83,-7.73,0,*52
1507269706.86,58363,12.13,72404.8,-6.23,-8.37,-8.29,0,*53
1507269708.13,58364,12.13,72382.5,-6.23,-8.03,-7.99,0,*57
1507269709.36,58365,12.13,72394.5,-6.21,-7.83,-7.77,0,*53
1507269710.61,58366,12.13,72402.8,-6.23,-7.95,-7.87,0,*5A
1507269711.83,58367,12.13,72398.0,-6.23,-7.87,-7.83,0,*5C
1507269713.06,58368,12.06,72384.0,-6.23,-7.83,-7.83,0,*57
1507269714.34,58369,12.13,72420.5,-6.23,-8.11,-8.11,0,*56
1507269715.56,58370,12.13,72430.0,-6.23,-8.17,-8.17,0,*5E
1507269716.81,58371,12.13,72430.8,-6.23,-7.87,-7.73,0,*54
1507269718.06,58372,12.13,72398.8,-6.23,-7.95,-7.83,0,*5B
1507269719.34,58373,12.06,72422.0,-6.23,-7.99,-7.99,0,*5D
1507269720.53,58374,12.13,72438.0,-6.25,-8.25,-8.25,0,*5C
1507269721.75,58375,12.13,72446.8,-6.29,-8.41,-8.33,0,*54
1507269722.99,58376,12.06,72430.3,-6.25,-7.99,-7.99,0,*5E
1507269724.27,58377,12.13,72452.5,-6.29,-7.65,-7.65,0,*53
1507269725.48,58378,12.13,72458.0,-6.29,-8.17,-8.17,0,*5C
1507269726.69,58379,12.06,72442.8,-6.29,-8.29,-8.29,0,*5D
1507269727.89,58380,12.13,72438.3,-6.25,-8.29,-8.29,0,*57
1507269729.09,58381,12.06,72436.3,-6.25,-8.17,-8.17,0,*56
1507269730.3,58382,12.06,72448.0,-6.29,-8.29,-8.29,0,*59
1507269731.49,58383,12.13,72448.8,-6.31,-8.59,-8.41,0,*58
1507269732.68,58384,12.13,72444.3,-6.31,-8.41,-8.33,0,*53
1507269733.86,58385,12.13,72450.0,-6.31,-8.67,-8.55,0,*56
1507269735.06,58386,12.13,72450.5,-6.31,-8.71,-8.59,0,*5E
1507269736.25,58387,12.13,72454.5,-6.31,-8.55,-8.45,0,*54
1507269737.45,58388,12.13,72456.0,-6.31,-8.45,-8.29,0,*50
1507269738.66,58389,12.13,72470.8,-6.33,-8.45,-8.33,0,*58
1507269739.88,58390,12.13,72456.8,-6.33,-8.45,-8.45,0,*51
1507269741.1,58391,12.06,72454.0,-6.33,-8.59,-8.45,0,*5D
1507269742.29,58392,12.13,72458.8,-6.31,-8.29,-8.17,0,*5C
1507269743.51,58393,12.13,72470.0,-6.33,-8.33,-8.21,0,*51
1507269744.76,58394,12.13,72478.5,-6.33,-8.25,-8.07,0,*55
1507269746.01,58395,12.06,72474.0,-6.33,-8.21,-8.07,0,*50
1507269747.23,58396,12.06,72442.8,-6.31,-8.17,-7.95,0,*50
1507269748.49,58397,12.06,72448.8,-6.33,-7.95,-7.69,0,*55
1507269749.71,58398,12.13,72456.0,-6.33,-7.83,-7.53,0,*54
1507269750.98,58399,12.13,72444.0,-6.33,-7.65,-7.43,0,*5C
1507269752.2,58400,12.13,72436.0,-6.31,-7.27,-7.15,0,*5C
1507269753.44,58401,12.06,72438.5,-6.31,-7.39,-7.27,0,*53
1507269754.68,58402,12.13,72414.3,-6.29,-7.27,-7.11,0,*53
1507269755.91,58403,12.06,72400.8,-6.25,-7.19,-7.05,0,*56
1507269757.14,58404,12.13,72388.8,-6.25,-7.35,-7.11,0,*5A
1507269758.37,58405,12.13,72382.3,-6.25,-7.35,-7.23,0,*5A
1507269759.6,58406,12.13,72344.3,-6.25,-7.43,-7.23,0,*58
1507269760.82,58407,12.13,72282.5,-6.25,-7.31,-7.19,0,*55
1507269762.08,58408,12.13,72312.3,-6.25,-7.57,-7.43,0,*55
1507269763.31,58409,12.13,72354.5,-6.25,-7.83,-7.61,0,*5D
1507269764.58,58410,12.13,72314.0,-6.23,-7.69,-7.35,0,*56
1507269765.8,58411,12.13,72284.5,-6.21,-7.65,-7.53,0,*59
1507269767.08,58412,12.13,72312.5,-6.23,-7.31,-7.31,0,*5D
1507269768.35,58413,12.13,72336.3,-6.23,-7.73,-7.69,0,*57
1507269769.58,58414,12.13,72346.3,-6.21,-7.53,-7.43,0,*58
1507269770.82,58415,12.13,72392.5,-6.23,-7.49,-7.31,0,*55
1507269772.05,58416,12.13,72402.3,-6.23,-7.23,-7.19,0,*50
1507269773.32,58417,12.13,72402.8,-6.23,-7.01,-6.93,0,*52
1507269774.55,58418,12.13,72394.8,-6.21,-6.97,-6.85,0,*56
1507269775.75,58419,12.13,72406.3,-6.21,-6.73,-6.59,0,*5C
1507269776.98,58420,12.13,72406.3,-6.19,-6.73,-6.51,0,*55
1507269778.22,58421,12.06,72424.0,-6.19,-6.63,-6.59,0,*5D
1507269779.43,58422,12.13,72424.5,-6.13,-6.55,-6.43,0,*5A
1507269780.62,58423,12.13,72432.8,-6.13,-6.69,-6.55,0,*53
1507269781.83,58424,12.13,72438.0,-6.13,-6.55,-6.51,0,*5F
1507269783.03,58425,12.13,72432.3,-6.13,-6.51,-6.43,0,*59
1507269784.23,58426,12.13,72434.8,-6.13,-6.51,-6.39,0,*57
1507269785.44,58427,12.13,72432.8,-6.13,-6.55,-6.51,0,*5C
1507269786.64,58428,12.13,72446.8,-6.13,-6.55,-6.51,0,*53
1507269787.86,58429,12.13,72438.8,-6.11,-6.69,-6.43,0,*5C
1507269789.09,58430,12.13,72448.0,-6.09,-6.77,-6.63,0,*50
1507269790.33,58431,12.13,72432.8,-6.09,-7.05,-7.01,0,*50
1507269791.57,58432,12.13,72428.0,-6.09,-7.39,-7.27,0,*58
1507269792.85,58433,12.13,72438.8,-6.11,-7.69,-7.57,0,*52
1507269794.13,58434,12.13,72424.5,-6.11,-7.57,-7.35,0,*5C
1507269795.37,58435,12.13,72426.8,-6.09,-7.31,-7.27,0,*57
1507269796.64,58436,12.06,72400.3,-6.11,-7.91,-7.99,0,*52
1507269797.9,58437,12.06,72402.0,-6.13,-8.11,-8.11,0,*59
1507269799.14,58438,12.13,72406.0,-6.13,-7.99,-7.91,0,*5E
1507269800.39,58439,12.13,72404.3,-6.13,-7.99,-7.99,0,*57
1507269801.59,58440,12.13,72414.5,-6.13,-8.29,-8.25,0,*55
1507269802.83,58441,12.06,72412.0,-6.13,-8.03,-7.99,0,*54
1507269804.06,58442,12.13,72406.3,-6.13,-7.91,-7.83,0,*58
1507269805.25,58443,12.13,72434.8,-6.13,-8.25,-8.17,0,*5B
1507269806.45,58444,12.13,72452.3,-6.17,-8.45,-8.33,0,*58
1507269807.7,58445,12.13,72406.5,-6.19,-7.91,-7.83,0,*55
1507269808.95,58446,12.13,72406.3,-6.19,-7.95,-7.83,0,*52
1507269810.18,58447,12.06,72394.5,-6.17,-7.95,-7.87,0,*59
1507269811.41,58448,12.13,72412.0,-6.19,-8.59,-8.37,0,*53
1507269812.67,58449,12.06,72408.3,-6.19,-8.51,-8.37,0,*5A
1507269813.9,58450,12.06,72398.3,-6.19,-8.37,-8.21,0,*55
1507269815.09,58451,12.06,72412.5,-6.21,-8.21,-8.25,0,*5C
1507269816.32,58452,12.06,72434.8,-6.23,-8.41,-8.37,0,*58
1507269817.52,58453,12.13,72428.0,-6.21,-8.25,-8.21,0,*5E
1507269818.74,58454,12.13,72442.3,-6.23,-8.25,-8.25,0,*5F
1507269819.96,58455,12.13,72442.0,-6.23,-8.37,-8.29,0,*51
1507269821.21,58456,12.13,72438.5,-6.23,-8.51,-8.41,0,*5C
1507269822.46,58457,12.13,72440.0,-6.23,-7.99,-8.17,0,*55
1507269823.71,58458,12.13,72444.5,-6.23,-8.17,-8.03,0,*56
1507269824.93,58459,12.13,72440.5,-6.23,-7.87,-7.87,0,*52
1507269826.18,58460,12.13,72444.5,-6.23,-7.95,-7.87,0,*5B
1507269827.46,58461,12.13,72444.5,-6.23,-7.73,-7.69,0,*52
1507269828.72,58462,12.13,72430.5,-6.23,-7.73,-7.83,0,*55
1507269829.97,58463,12.13,72416.3,-6.21,-7.77,-7.77,0,*59
1507269831.19,58464,12.13,72440.5,-6.21,-8.51,-8.59,0,*56
1507269832.4,58465,12.13,72404.8,-6.23,-8.67,-8.63,0,*59
1507269833.67,58466,12.13,72392.3,-6.23,-8.03,-8.03,0,*5E
1507269834.89,58467,12.13,72410.3,-6.23,-8.17,-8.25,0,*5E
1507269836.14,58468,12.13,72408.8,-6.25,-7.99,-8.03,0,*5A
1507269837.34,58469,12.13,72402.8,-6.25,-7.87,-7.87,0,*57
1507269838.59,58470,12.13,72446.5,-6.25,-7.69,-7.69,0,*5F
1507269839.82,58471,12.06,72446.5,-6.25,-7.61,-7.83,0,*52
1507269841.08,58472,12.06,72440.5,-6.25,-7.73,-7.73,0,*5D
1507269842.33,58473,12.06,72454.8,-6.25,-7.73,-7.69,0,*57
1507269843.56,58474,12.13,72358.0,-6.23,-7.83,-7.83,0,*5D
1507269844.78,58475,12.13,72404.3,-6.21,-7.91,-7.83,0,*5D
1507269846.03,58476,12.13,72380.3,-6.23,-8.67,-8.51,0,*5A
1507269847.26,58477,12.13,72380.8,-6.23,-8.81,-8.67,0,*56
1507269848.49,58478,12.13,72368.0,-6.21,-8.63,-8.51,0,*52
1507269849.71,58479,12.13,72362.3,-6.23,-8.41,-8.29,0,*5E
1507269850.93,58480,12.13,72402.3,-6.23,-8.29,-8.25,0,*5A
1507269852.18,58481,12.13,72408.5,-6.23,-8.29,-7.99,0,*53
1507269853.45,58482,12.13,72388.8,-6.23,-8.11,-7.99,0,*5B
1507269854.68,58483,12.13,72410.8,-6.23,-8.55,-8.37,0,*51
1507269855.93,58484,12.13,72390.3,-6.23,-8.25,-7.95,0,*56
1507269857.18,58485,12.06,72390.3,-6.23,-8.29,-8.11,0,*58
1507269858.4,58486,12.13,72376.8,-6.23,-8.67,-8.41,0,*54
1507269859.65,58487,12.13,72368.5,-6.23,-8.17,-8.11,0,*57
1507269860.92,58488,12.13,72346.3,-6.23,-8.11,-7.99,0,*51
1507269862.18,58489,12.13,72378.0,-6.23,-7.87,-7.73,0,*54
1507269863.42,58490,12.06,72410.3,-6.21,-7.05,-6.97,0,*5F
1507269864.67,58491,12.13,72422.8,-6.23,-7.11,-7.01,0,*57
1507269865.95,58492,12.13,72412.5,-6.19,-7.69,-7.65,0,*50
1507269867.15,58493,12.06,72424.0,-6.21,-8.45,-8.37,0,*53
1507269868.34,58494,12.13,72412.8,-6.21,-8.59,-8.59,0,*51
1507269869.57,58495,12.13,72398.3,-6.23,-8.55,-8.63,0,*57
1507269870.82,58496,12.13,72368.0,-6.23,-8.51,-8.41,0,*50
1507269872.09,58497,12.13,72372.5,-6.23,-8.11,-8.03,0,*53
1507269873.36,58498,12.13,72394.3,-6.23,-7.95,-7.99,0,*53
1507269874.61,58499,12.06,72406.8,-6.23,-7.95,-7.87,0,*5D
1507269875.84,58500,12.06,72398.3,-6.21,-7.83,-7.77,0,*56
1507269877.09,58501,12.13,72414.5,-6.21,-7.65,-7.65,0,*5C
1507269878.31,58502,12.13,72418.3,-6.23,-7.83,-7.83,0,*5D
1507269879.56,58503,12.13,72444.8,-6.21,-7.91,-7.91,0,*5E
1507269880.83,58504,12.13,72404.3,-6.23,-7.99,-7.95,0,*57
1507269882.03,58505,12.13,72426.0,-6.21,-7.87,-7.83,0,*5C
1507269883.27,58506,12.13,72422.0,-6.23,-7.11,-7.05,0,*5C
1507269884.52,58507,12.13,72396.3,-6.21,-7.27,-7.27,0,*5A
1507269885.75,58508,12.13,72426.5,-6.19,-7.19,-7.19,0,*5E
1507269886.97,58509,12.13,72414.5,-6.19,-8.21,-8.25,0,*5B
1507269888.23,58510,12.13,72398.5,-6.19,-8.63,-8.51,0,*56
1507269889.45,58511,12.13,72410.0,-6.23,-8.67,-8.63,0,*5B
1507269890.64,58512,12.13,72414.0,-6.21,-8.45,-8.25,0,*58
1507269891.91,58513,12.13,72400.5,-6.23,-7.99,-8.03,0,*51
1507269893.13,58514,12.13,72410.3,-6.21,-7.91,-7.83,0,*5B
1507269894.39,58515,12.13,72410.5,-6.21,-7.57,-7.65,0,*58
1507269895.63,58516,12.13,72426.8,-6.23,-7.83,-7.69,0,*5C
1507269896.91,58517,12.13,72402.8,-6.23,-7.69,-7.73,0,*52
1507269898.16,58518,12.13,72398.5,-6.21,-7.57,-7.39,0,*5C
1507269899.39,58519,12.06,72430.0,-6.21,-7.43,-7.19,0,*5A
1507269900.66,58520,12.13,72428.3,-6.19,-7.77,-7.65,0,*57
1507269901.92,58521,12.13,72440.3,-6.19,-7.99,-7.83,0,*5E
1507269903.17,58522,12.06,72430.8,-6.19,-8.25,-8.11,0,*51
1507269904.39,58523,12.13,72410.5,-6.21,-7.91,-7.83,0,*5F
1507269905.65,58524,12.06,72392.5,-6.19,-7.53,-7.43,0,*51
1507269906.88,58525,12.13,72374.8,-6.19,-7.15,-7.15,0,*51
1507269908.15,58526,12.06,72344.8,-6.19,-7.05,-6.93,0,*5C
1507269909.43,58527,12.13,72350.5,-6.19,-7.01,-6.97,0,*5D
1507269910.63,58528,12.06,72364.5,-6.17,-7.15,-7.15,0,*52
1507269911.88,58529,12.13,72390.8,-6.17,-7.01,-7.01,0,*53
1507269913.1,58530,12.06,72398.5,-6.17,-7.11,-7.01,0,*5A
1507269914.35,58531,12.06,72372.0,-6.13,-6.97,-6.97,0,*5E
1507269915.6,58532,12.06,72352.0,-6.13,-7.31,-7.31,0,*5D
1507269916.85,58533,12.06,72352.5,-6.13,-7.35,-7.35,0,*5C
1507269918.08,58534,12.13,72380.5,-6.13,-7.73,-7.83,0,*54
1507269919.32,58535,12.06,72334.5,-6.13,-7.73,-7.83,0,*55
1507269920.57,58536,12.06,72318.0,-6.13,-8.11,-8.11,0,*59
1507269921.83,58537,12.06,72348.3,-6.13,-7.73,-7.73,0,*58
1507269923.05,58538,12.06,72342.3,-6.13,-7.83,-7.73,0,*58
1507269924.3,58539,12.13,72340.0,-6.13,-7.99,-7.99,0,*56
1507269925.5,58540,12.13,72346.3,-6.13,-8.29,-8.25,0,*54
1507269926.69,58541,12.13,72344.5,-6.13,-8.41,-8.29,0,*57
1507269927.92,58542,12.13,72338.3,-6.13,-7.83,-7.73,0,*55
1507269929.14,58543,12.06,72336.5,-6.17,-7.87,-7.91,0,*58
1507269930.39,58544,12.13,72338.8,-6.17,-7.95,-8.03,0,*58
1507269931.63,58545,12.13,72316.5,-6.17,-8.07,-8.03,0,*5D
1507269932.83,58546,12.13,72338.8,-6.17,-8.21,-8.17,0,*5F
1507269934.02,58547,12.06,72360.3,-6.17,-8.55,-8.41,0,*5E
1507269935.25,58548,12.13,72352.5,-6.19,-8.59,-8.45,0,*57
1507269936.47,58549,12.06,72370.3,-6.19,-8.63,-8.63,0,*5B
1507269937.66,58550,12.13,72384.5,-6.17,-8.59,-8.55,0,*51
1507269938.94,58551,12.13,72314.0,-6.19,-8.11,-7.99,0,*5D
1507269940.14,58552,12.13,72346.0,-6.17,-8.41,-8.33,0,*5A
1507269941.39,58553,12.13,72326.8,-6.19,-8.63,-8.51,0,*51
1507269942.62,58554,12.13,72312.3,-6.19,-8.59,-8.37,0,*5F
1507269943.85,58555,12.13,72348.0,-6.19,-8.59,-8.45,0,*5B
1507269945.08,58556,12.06,72350.8,-6.19,-8.37,-8.37,0,*55
1507269946.31,58557,12.13,72346.3,-6.19,-8.45,-8.25,0,*52
1507269947.53,58558,12.13,72362.8,-6.17,-8.41,-8.03,0,*53
1507269948.75,58559,12.13,72352.5,-6.21,-8.33,-8.07,0,*56
1507269949.97,58560,12.13,72370.8,-6.21,-8.45,-8.11,0,*5A
1507269951.2,58561,12.13,72358.8,-6.21,-8.07,-7.83,0,*59
1507269952.45,58562,12.13,72356.0,-6.21,-7.95,-7.91,0,*5D
1507269953.72,58563,12.13,72364.0,-6.19,-8.11,-7.95,0,*50
1507269955.0,58564,12.13,72366.8,-6.19,-8.07,-7.95,0,*50
1507269956.23,58565,12.06,72368.5,-6.19,-8.37,-8.21,0,*52
1507269957.48,58566,12.13,72368.3,-6.19,-8.25,-8.11,0,*51
1507269958.71,58567,12.13,72398.3,-6.19,-7.83,-7.83,0,*57
1507269959.96,58568,12.06,72394.3,-6.19,-7.69,-7.53,0,*51
1507269961.2,58569,12.13,72414.5,-6.19,-7.15,-7.05,0,*58
1507269962.44,58570,12.13,72434.3,-6.17,-6.93,-6.81,0,*5C
1507269963.64,58571,12.13,72458.3,-6.17,-6.85,-6.81,0,*5A
1507269964.84,58572,12.13,72468.0,-6.17,-6.81,-6.55,0,*54
1507269966.04,58573,12.13,72472.0,-6.13,-6.55,-6.43,0,*5F
1507269967.29,58574,12.13,72482.8,-6.13,-6.97,-6.93,0,*5B
1507269968.55,58575,12.06,72480.5,-6.13,-7.43,-7.31,0,*5B
1507269969.78,58576,12.13,72484.0,-6.11,-7.23,-7.11,0,*5E
1507269971.03,58577,12.13,72512.3,-6.11,-7.57,-7.49,0,*51
1507269972.23,58578,12.13,72504.3,-6.09,-7.23,-7.23,0,*58
1507269973.47,58579,12.13,72478.0,-6.09,-7.39,-7.27,0,*56
1507269974.71,58580,12.13,72456.5,-6.11,-7.19,-7.11,0,*5E
1507269975.98,58581,12.06,72400.3,-6.11,-7.05,-6.97,0,*5D
1507269977.24,58582,12.13,72420.5,-6.11,-7.31,-7.05,0,*53
1507269978.51,58583,12.13,72416.0,-6.11,-7.69,-7.69,0,*55
1507269979.75,58584,12.06,72358.5,-6.09,-7.39,-7.31,0,*53
1507269981.01,58585,12.13,72344.5,-6.09,-7.43,-7.43,0,*5A
1507269982.25,58586,12.06,72320.5,-6.09,-7.77,-7.69,0,*56
1507269983.53,58587,12.13,72392.5,-6.11,-7.43,-7.43,0,*51
1507269984.77,58588,12.13,72342.5,-6.09,-7.39,-7.27,0,*58
1507269985.99,58589,12.13,72342.3,-6.09,-6.93,-6.85,0,*51
1507269987.19,58590,12.13,72438.3,-6.09,-6.85,-6.73,0,*57
1507269988.39,58591,12.13,72430.8,-6.05,-6.69,-6.59,0,*50
1507269989.61,58592,12.13,72386.8,-6.05,-7.01,-6.85,0,*5D
1507269990.83,58593,12.13,72382.0,-6.07,-7.15,-7.15,0,*53
1507269992.03,58594,12.13,72478.8,-6.05,-6.89,-6.89,0,*56
1507269993.23,58595,12.13,72388.5,-6.05,-7.23,-7.23,0,*57
1507269994.48,58596,12.13,72396.0,-6.07,-7.01,-6.89,0,*57
1507269995.68,58597,12.13,72402.5,-6.01,-6.85,-6.81,0,*55
1507269996.92,58598,12.13,72440.3,-6.01,-6.97,-6.93,0,*5A
1507269998.18,58599,12.06,72448.5,-6.01,-7.73,-7.61,0,*5C
1507269999.38,58600,12.13,72446.5,-6.01,-7.19,-7.11,0,*54
1507270000.57,58601,12.13,72462.5,-6.01,-7.23,-7.19,0,*54
1507270001.84,58602,12.13,72416.8,-5.99,-7.73,-7.69,0,*57
1507270003.09,58603,12.13,72432.5,-6.01,-7.73,-7.69,0,*54
1507270004.34,58604,12.13,72450.0,-5.99,-7.35,-7.23,0,*5D
1507270005.57,58605,12.13,72450.5,-6.01,-7.05,-7.05,0,*59
1507270006.8,58606,12.13,72464.8,-5.99,-7.23,-7.11,0,*59
1507270008.02,58607,12.13,72464.0,-6.01,-7.35,-7.23,0,*5C
1507270009.22,58608,12.06,72462.3,-6.01,-7.23,-7.11,0,*55
1507270010.44,58609,12.13,72450.8,-6.01,-7.11,-6.97,0,*5A
1507270011.65,58610,12.13,72430.3,-5.99,-7.49,-7.49,0,*5F
1507270012.9,58611,12.06,72412.0,-6.01,-7.69,-7.57,0,*51
1507270014.14,58612,12.06,72420.0,-5.99,-8.17,-8.11,0,*5B
1507270015.38,58613,12.13,72442.0,-5.99,-7.61,-7.49,0,*56
1507270016.6,58614,12.13,72444.3,-6.01,-7.49,-7.43,0,*53
1507270017.85,58615,12.06,72436.0,-6.01,-7.61,-7.57,0,*5D
1507270019.09,58616,12.13,72420.5,-6.01,-8.11,-8.03,0,*58
1507270020.34,58617,12.13,72384.3,-6.01,-7.99,-7.91,0,*52
1507270021.55,58618,12.13,72360.0,-6.01,-7.61,-7.49,0,*5F
1507270022.8,58619,12.06,72372.8,-6.01,-7.57,-7.57,0,*54
1507270024.05,58620,12.06,72376.8,-6.01,-7.99,-7.99,0,*5E
1507270025.24,58621,12.13,72354.8,-6.01,-8.25,-8.17,0,*5E
1507270026.46,58622,12.13,72410.5,-6.07,-8.37,-8.25,0,*59
1507270027.71,58623,12.13,72390.0,-6.07,-7.99,-7.87,0,*54
1507270028.96,58624,12.13,72360.5,-6.05,-7.77,-7.65,0,*5D
1507270030.18,58625,12.13,72378.5,-6.07,-8.33,-8.37,0,*59
1507270031.4,58626,12.13,72394.8,-6.07,-8.59,-8.59,0,*5E
1507270032.63,58627,12.13,72408.8,-6.07,-8.37,-8.37,0,*5F
1507270033.83,58628,12.13,72402.8,-6.09,-7.83,-7.83,0,*5E
1507270035.08,58629,12.13,72392.0,-6.09,-8.07,-8.11,0,*58
1507270036.31,58630,12.13,72404.3,-6.09,-8.51,-8.45,0,*52
1507270037.51,58631,12.13,72388.0,-6.09,-8.45,-8.45,0,*56
1507270038.72,58632,12.13,72400.5,-6.11,-8.67,-8.55,0,*5D
1507270039.94,58633,12.06,72414.3,-6.11,-8.63,-8.63,0,*5D
1507270041.16,58634,12.06,72400.5,-6.11,-8.55,-8.55,0,*5A
1507270042.41,58635,12.13,72394.5,-6.11,-8.25,-8.11,0,*5C
1507270043.64,58636,12.13,72410.0,-6.13,-8.17,-8.11,0,*5C
1507270044.88,58637,12.13,72360.8,-6.13,-8.03,-7.91,0,*5F
1507270046.14,58638,12.13,72398.0,-6.13,-7.73,-7.73,0,*54
1507270047.4,58639,12.13,72372.3,-6.13,-7.57,-7.61,0,*50
1507270048.67,58640,12.13,72336.3,-6.11,-7.35,-7.35,0,*59
1507270049.95,58641,12.13,72348.5,-6.11,-7.57,-7.57,0,*58
1507270051.22,58642,12.13,72334.5,-6.11,-8.03,-7.99,0,*57
1507270052.42,58643,12.13,72366.0,-6.13,-8.55,-8.55,0,*58
1507270053.64,58644,12.13,72348.5,-6.13,-8.41,-8.51,0,*5E
1507270054.86,58645,12.13,72376.8,-6.13,-7.61,-7.49,0,*54
1507270056.12,58646,12.13,72362.8,-6.13,-7.73,-7.73,0,*5D
1507270057.37,58647,12.06,72372.5,-6.13,-7.69,-7.69,0,*5C
1507270058.62,58648,12.13,72350.8,-6.13,-7.73,-7.73,0,*53
1507270059.85,58649,12.13,72372.0,-6.13,-7.49,-7.61,0,*58
1507270061.1,58650,12.13,72382.0,-6.13,-7.43,-7.35,0,*5B
1507270062.36,58651,12.13,72396.3,-6.13,-7.43,-7.43,0,*5B
1507270063.58,58652,12.13,72392.0,-6.13,-7.83,-7.73,0,*57
1507270064.83,58653,12.13,72394.5,-6.13,-7.69,-7.69,0,*59
1507270066.05,58654,12.13,72402.5,-6.09,-7.65,-7.53,0,*50
1507270067.27,58655,12.13,72398.3,-6.11,-8.17,-8.29,0,*50
1507270068.49,58656,12.13,72392.5,-6.11,-8.41,-8.41,0,*5E
1507270069.71,58657,12.13,72400.8,-6.11,-8.63,-8.55,0,*5A
1507270070.9,58658,12.13,72416.5,-6.09,-8.37,-8.33,0,*5D
1507270072.13,58659,12.13,72412.0,-6.11,-8.29,-8.37,0,*5E
1507270073.32,58660,12.13,72388.3,-6.13,-8.67,-8.63,0,*5D
1507270074.52,58661,12.13,72394.8,-6.13,-8.37,-8.41,0,*59
1507270075.77,58662,12.13,72382.3,-6.13,-8.51,-8.51,0,*5B
1507270076.98,58663,12.13,72374.5,-6.13,-8.37,-8.37,0,*5A
1507270078.18,58664,12.06,72360.3,-6.13,-8.25,-8.25,0,*5D
1507270079.38,58665,12.13,72358.8,-6.13,-8.37,-8.37,0,*5C
1507270080.63,58666,12.13,72366.3,-6.13,-7.99,-7.99,0,*5F
1507270081.88,58667,12.06,72356.0,-6.13,-8.11,-8.03,0,*5D
1507270083.12,58668,12.13,72348.8,-6.13,-8.03,-8.03,0,*51
1507270084.37,58669,12.13,72360.5,-6.17,-7.61,-7.65,0,*50
1507270085.59,58670,12.13,72364.8,-6.17,-7.27,-7.15,0,*5D
1507270086.82,58671,12.13,72378.5,-6.17,-7.27,-7.23,0,*59
1507270088.04,58672,12.06,72378.3,-6.13,-7.49,-7.57,0,*55
1507270089.29,58673,12.13,72378.3,-6.13,-7.61,-7.61,0,*5B
1507270090.53,58674,12.13,72354.5,-6.13,-7.73,-7.83,0,*53
1507270091.73,58675,12.13,72402.3,-6.13,-8.17,-8.17,0,*5D
1507270092.98,58676,12.06,72414.8,-6.13,-8.51,-8.51,0,*5E
1507270094.18,58677,12.06,72392.8,-6.13,-8.29,-8.37,0,*50
1507270095.4,58678,12.13,72408.5,-6.13,-7.87,-7.91,0,*57
1507270096.65,58679,12.13,72422.5,-6.13,-7.69,-7.73,0,*5A
1507270097.85,58680,12.13,72412.8,-6.13,-8.17,-8.17,0,*57
1507270099.04,58681,12.13,72418.0,-6.17,-8.59,-8.59,0,*52
1507270100.26,58682,12.13,72412.8,-6.19,-8.33,-8.25,0,*58
1507270101.51,58683,12.13,72440.5,-6.17,-7.65,-7.61,0,*54
1507270102.76,58684,12.06,72438.3,-6.17,-7.39,-7.27,0,*58
1507270103.96,58685,12.13,72460.3,-6.13,-7.11,-7.19,0,*5A
1507270105.19,58686,12.13,72446.0,-6.13,-7.43,-7.23,0,*57
1507270106.39,58687,12.13,72448.8,-6.13,-7.23,-7.19,0,*59
1507270107.59,58688,12.13,72462.5,-6.13,-7.23,-7.19,0,*56
1507270108.85,58689,12.13,72468.5,-6.13,-7.43,-7.43,0,*5E
1507270110.11,58690,12.13,72462.5,-6.13,-7.61,-7.61,0,*56